Flag for Germany Weather past 2 weeks in Greifswald, Mecklenburg-Western Pomerania, Germany

Now
72 °F

Thundershowers. Overcast.


Feels Like: 69 °F
Forecast: 64 / 74 °F
Wind: 3 mph from Northeast

Location: Greifswald

Current Time: Jul 30, 2014 at 1:08:27 AM

Latest Report: Jul 30, 2014 at 12:00 AM


Visibility: 2 mi

Pressure: 29.75 "Hg

Humidity: 91%

Dew point: 69 °F

Location of GreifswaldLocation

Historic Weather in Greifswald — Graph

°F

Greifswald temperature yesterday

Maximum temperature yesterday: 77 °F (at 1:00 PM)
Minimum temperature yesterday: 65 °F (at 3:00 AM)
Average temperature yesterday: 72 °F

Past Weeks' High & Low Weather Summary

 TemperatureHumidityPressure
High79 °F (Jul 27, 11:00 AM)99% (Jul 19, 6:00 AM)30.22 "Hg (Jul 19, 6:00 AM)
Low56 °F (Jul 18, 5:00 AM)46% (Jul 15, 7:00 PM)29.75 "Hg (Jul 29, 11:00 PM)
Average69 °F81%30.04 "Hg
* Reported Midnight between Jul 14 and Jul 15 — Midnight between Jul 29 and Jul 30, Greifswald, Weather by CustomWeather, © 2014

Note: Actual official high and low records may vary slightly from our data, if they occured in-between our weather recording intervals... More about our weather records

Advertising

Greifswald weather history for previous 24 hours

 ConditionsComfort  
Time TempWeatherWind HumidityBarometerVisibility
12:00 AM
Jul 30
72 °FThundershowers. Overcast.3 mph91%29.75 "Hg2 mi
11:00 PM
Jul 29
72 °FThunderstorms. Overcast.5 mph89%29.75 "Hg5 mi
10:00 PM73 °FOvercast.3 mph89%29.77 "Hg5 mi
9:00 PM73 °FOvercast.3 mph83%29.76 "Hg7 mi
8:00 PM74 °FOvercast.5 mph78%29.77 "Hg7 mi
7:00 PM75 °FOvercast.5 mph78%29.76 "Hg9 mi
6:00 PM76 °FOvercast.6 mph78%29.78 "Hg7 mi
4:00 PM77 °FScattered clouds.7 mph70%29.79 "Hg9 mi
3:00 PM76 °FPartly sunny.7 mph81%29.80 "Hg7 mi
2:00 PM77 °FPartly sunny.6 mph75%29.82 "Hg7 mi
1:00 PM77 °FScattered clouds.6 mph79%29.83 "Hg9 mi
12:00 PM76 °FScattered clouds.7 mph76%29.83 "Hg9 mi
11:00 AM75 °FPartly sunny.6 mph74%29.84 "Hg9 mi
10:00 AM75 °FPartly sunny.5 mph73%29.84 "Hg8 mi
9:00 AM74 °FPartly sunny.5 mph82%29.84 "Hg6 mi
8:00 AM73 °FFog.5 mph87%29.85 "Hg4 mi
7:00 AM67 °FFog.1 mph99%29.85 "Hg1 mi
6:00 AM66 °FFog.1 mph99%29.86 "Hg1 mi
5:00 AM66 °FFog.1 mph99%29.86 "Hg1 mi
4:00 AM66 °FFog.1 mph98%29.85 "Hg1 mi
3:00 AM65 °FFog.2 mph98%29.87 "Hg1 mi
2:00 AM65 °FFog.1 mph98%29.88 "Hg1 mi
1:00 AM65 °FFog.1 mph97%29.89 "Hg2 mi
Weather by CustomWeather, © 2014

See weather overviewHow to use our weather pages